Location: Aranbee
(34.0885°N, 118.2342°W)
Time: 04:20:19
(UTC+00:00)

Courier 1B - Pass Details

Date: 05 December 2020
Orbit: 962 x 1209 km, 28.3° (Epoch: 17 January)

Event Time Altitude Azimuth Distance (km) Brightness Sun altitude
Rises 01:07:16 0° 205° (SSW) 3,651 11.3 -5.3°
Reaches altitude 10° 01:11:27 10° 180° (S) 2,685 10.1 -6.1°
Maximum altitude 01:14:27 14° 151° (SSE) 2,426 9.5 -6.7°
Drops below altitude 10° 01:17:28 10° 123° (ESE) 2,685 9.5 -7.3°
Enters shadow 01:20:38 - 103° (ESE) 3,378 9.8 -7.9°
